TimeCDT,TemperatureF,Dew PointF,Humidity,Sea Level PressureIn,VisibilityMPH,Wind Direction,Wind SpeedMPH,Gust SpeedMPH,PrecipitationIn,Events,Conditions,WindDirDegrees,DateUTC
12:53 AM,70.0,66.0,87,30.15,8.0,Calm,Calm,-,N/A,,Overcast,0,2012-10-11 05:53:00
1:53 AM,69.1,66.0,90,30.15,6.0,Calm,Calm,-,N/A,,Overcast,0,2012-10-11 06:53:00
2:53 AM,66.9,64.9,93,30.14,4.0,Calm,Calm,-,N/A,,Clear,0,2012-10-11 07:53:00
3:20 AM,66.2,64.4,94,30.14,2.5,Calm,Calm,-,N/A,,Scattered Clouds,0,2012-10-11 08:20:00
3:22 AM,66.2,64.4,94,30.14,1.2,Calm,Calm,-,N/A,,Mostly Cloudy,0,2012-10-11 08:22:00
3:24 AM,66.2,64.4,94,30.14,0.8,Calm,Calm,-,N/A,,Mist,0,2012-10-11 08:24:00
3:35 AM,66.2,66.2,100,30.14,0.2,Calm,Calm,-,N/A,Fog,Fog,0,2012-10-11 08:35:00
3:53 AM,66.9,66.0,97,30.14,0.2,Calm,Calm,-,N/A,Fog,Fog,0,2012-10-11 08:53:00
4:53 AM,66.0,64.9,96,30.14,0.2,Calm,Calm,-,0.01,Fog,Fog,0,2012-10-11 09:53:00
5:10 AM,64.4,64.4,100,30.15,0.5,Calm,Calm,-,N/A,Fog,Fog,0,2012-10-11 10:10:00
5:23 AM,64.4,64.4,100,30.15,0.2,Calm,Calm,-,N/A,Fog,Fog,0,2012-10-11 10:23:00
5:53 AM,64.9,64.0,97,30.16,0.2,Calm,Calm,-,N/A,Fog,Fog,0,2012-10-11 10:53:00
6:22 AM,64.4,64.4,100,30.16,0.5,Calm,Calm,-,N/A,Fog,Fog,0,2012-10-11 11:22:00
6:29 AM,64.4,64.4,100,30.17,0.2,Calm,Calm,-,N/A,Fog,Fog,0,2012-10-11 11:29:00
6:53 AM,64.9,63.0,93,30.17,0.2,Calm,Calm,-,N/A,Fog,Fog,0,2012-10-11 11:53:00
7:27 AM,64.4,64.4,100,30.18,2.0,Calm,Calm,-,N/A,,Mostly Cloudy,0,2012-10-11 12:27:00
7:36 AM,64.4,64.4,100,30.18,2.5,Calm,Calm,-,N/A,,Scattered Clouds,0,2012-10-11 12:36:00
7:49 AM,64.4,64.4,100,30.19,3.0,Calm,Calm,-,N/A,,Clear,0,2012-10-11 12:49:00
7:53 AM,64.9,64.0,97,30.19,3.0,Calm,Calm,-,N/A,,Clear,0,2012-10-11 12:53:00
8:53 AM,71.1,66.0,84,30.20,10.0,Calm,Calm,-,N/A,,Clear,0,2012-10-11 13:53:00
9:53 AM,75.9,64.9,69,30.22,10.0,Variable,3.5,-,N/A,,Clear,0,2012-10-11 14:53:00
10:53 AM,80.1,63.0,56,30.23,10.0,Variable,4.6,-,N/A,,Clear,0,2012-10-11 15:53:00
11:53 AM,82.9,63.0,51,30.22,10.0,Variable,5.8,-,N/A,,Clear,0,2012-10-11 16:53:00
12:53 PM,84.9,62.1,46,30.20,10.0,SSE,4.6,-,N/A,,Clear,150,2012-10-11 17:53:00
1:53 PM,86.0,62.1,44,30.17,10.0,SE,4.6,-,N/A,,Clear,130,2012-10-11 18:53:00
2:53 PM,86.0,62.1,44,30.16,10.0,Variable,4.6,-,N/A,,Clear,0,2012-10-11 19:53:00
3:53 PM,86.0,63.0,46,30.14,10.0,Variable,4.6,-,N/A,,Partly Cloudy,0,2012-10-11 20:53:00
4:53 PM,84.2,62.6,48,30.14,10.0,Variable,5.8,-,N/A,,Clear,0,2012-10-11 21:53:00
5:53 PM,82.4,64.4,54,30.14,10.0,Calm,Calm,-,N/A,,Partly Cloudy,0,2012-10-11 22:53:00
6:53 PM,78.1,66.9,68,30.16,10.0,South,5.8,-,N/A,,Mostly Cloudy,180,2012-10-11 23:53:00
7:53 PM,75.2,66.2,73,30.17,10.0,Calm,Calm,-,N/A,,Clear,0,2012-10-12 00:53:00
8:53 PM,72.0,66.9,84,30.18,10.0,Calm,Calm,-,N/A,,Clear,0,2012-10-12 01:53:00
9:53 PM,71.1,66.0,84,30.20,10.0,Calm,Calm,-,N/A,,Clear,0,2012-10-12 02:53:00
10:53 PM,70.0,66.9,90,30.20,8.0,Calm,Calm,-,N/A,,Clear,0,2012-10-12 03:53:00
11:53 PM,69.1,66.0,90,30.19,8.0,Calm,Calm,-,N/A,,Clear,0,2012-10-12 04:53:00